Flag for Montenegro Weather past 2 weeks in Podgorica, Montenegro

Now
73 °F

Clear.


Feels Like: 74 °F
Forecast: 70 / 87 °F
Wind: 3 mph from West

Location: Podgorica Titograd

Current Time: Jul 25, 2014 at 1:10:20 AM

Latest Report: Jul 25, 2014 at 12:30 AM


Visibility: 10 mi

Pressure: 29.86 "Hg

Humidity: 78%

Dew point: 66 °F

Location of PodgoricaLocation

Historic Weather in Podgorica — Graph

°F

Podgorica temperature yesterday

Maximum temperature yesterday: 86 °F (at 2:30 PM)
Minimum temperature yesterday: 68 °F (at 4:30 AM)
Average temperature yesterday: 77 °F

Past Weeks' High & Low Weather Summary

 TemperatureHumidityPressure
High93 °F (Jul 19, 2:00 PM)100% (Jul 11, 4:00 AM)29.98 "Hg (Jul 11, 4:00 AM)
Low59 °F (Jul 10, 11:30 PM)28% (Jul 19, 2:00 PM)29.68 "Hg (Jul 11, 3:30 AM)
Average76 °F62%29.86 "Hg
* Reported Midnight between Jul 9 and Jul 10 — Midnight between Jul 24 and Jul 25, Podgorica, Weather by CustomWeather, © 2014

Note: Actual official high and low records may vary slightly from our data, if they occured in-between our weather recording intervals... More about our weather records

Advertising

Podgorica weather history for previous 24 hours

 ConditionsComfort  
Time TempWeatherWind HumidityBarometerVisibility
12:00 AM
Jul 25
73 °FClear.1 mph83%29.86 "Hg10 mi
11:30 PM
Jul 24
73 °FClear.1 mph78%29.86 "Hg10 mi
11:00 PM73 °FClear.No wind78%29.86 "Hg10 mi
10:30 PM75 °FClear.1 mph74%29.86 "Hg10 mi
10:00 PM75 °FClear.2 mph74%29.83 "Hg10 mi
9:30 PM75 °FPassing clouds.5 mph74%29.83 "HgN/A
9:00 PM77 °FPassing clouds.5 mph69%29.83 "HgN/A
8:30 PM79 °FPassing clouds.6 mph65%29.83 "HgN/A
8:00 PM81 °FPassing clouds.7 mph58%29.83 "HgN/A
7:30 PM82 °FPassing clouds.7 mph55%29.80 "HgN/A
7:00 PM82 °FPassing clouds.5 mph55%29.80 "HgN/A
6:30 PM84 °FPassing clouds.6 mph51%29.80 "HgN/A
6:00 PM84 °FPassing clouds.5 mph48%29.80 "HgN/A
5:30 PM86 °FPassing clouds.8 mph46%29.80 "HgN/A
5:00 PM86 °FPassing clouds.6 mph46%29.80 "HgN/A
4:30 PM86 °FPassing clouds.7 mph49%29.80 "HgN/A
4:00 PM86 °FPassing clouds.6 mph49%29.80 "HgN/A
3:30 PM86 °FPassing clouds.5 mph43%29.80 "HgN/A
3:00 PM86 °FPassing clouds.5 mph43%29.80 "HgN/A
2:30 PM86 °FScattered clouds.5 mph46%29.80 "HgN/A
2:00 PM84 °FScattered clouds.5 mph51%29.80 "HgN/A
1:30 PM84 °FScattered clouds.6 mph51%29.83 "HgN/A
1:00 PM84 °FScattered clouds.3 mph51%29.83 "HgN/A
12:30 PM82 °FScattered clouds.5 mph55%29.83 "HgN/A
12:00 PM82 °FScattered clouds.3 mph55%29.83 "HgN/A
11:30 AM82 °FScattered clouds.3 mph58%29.83 "HgN/A
11:00 AM81 °FScattered clouds.5 mph58%29.83 "HgN/A
10:30 AM81 °FPassing clouds.3 mph58%29.83 "HgN/A
10:00 AM79 °FPassing clouds.5 mph61%29.83 "HgN/A
9:30 AM79 °FPassing clouds.3 mph61%29.83 "HgN/A
9:00 AM77 °FPassing clouds.2 mph65%29.83 "HgN/A
8:30 AM75 °FPassing clouds.3 mph65%29.83 "HgN/A
7:30 AM73 °FPassing clouds.5 mph74%29.83 "HgN/A
7:00 AM72 °FPassing clouds.3 mph78%29.80 "HgN/A
6:30 AM70 °FPassing clouds.3 mph78%29.80 "HgN/A
6:00 AM68 °FPassing clouds.3 mph83%29.80 "HgN/A
5:30 AM68 °FPassing clouds.5 mph88%29.80 "HgN/A
5:00 AM68 °FPassing clouds.6 mph88%29.80 "HgN/A
4:30 AM68 °FPassing clouds.6 mph88%29.80 "HgN/A
4:00 AM70 °FPassing clouds.6 mph83%29.80 "HgN/A
3:30 AM70 °FPassing clouds.5 mph83%29.80 "HgN/A
3:00 AM70 °FPassing clouds.3 mph83%29.80 "HgN/A
2:30 AM70 °FPassing clouds.2 mph83%29.80 "HgN/A
2:00 AM70 °FPassing clouds.5 mph88%29.80 "HgN/A
1:30 AM72 °FPassing clouds.5 mph83%29.80 "HgN/A
1:00 AM72 °FPassing clouds.5 mph83%29.80 "HgN/A
Weather by CustomWeather, © 2014

See weather overviewHow to use our weather pages